This is the latest recevied weather packets stored in our database for station/object KD9NSC. If no packets are shown the sender has not sent any weather packets the latest 10 day(s).
| Time | Temp. | Humidity | Pressure | Rain* | Wind** | Luminosity | Snow |
|---|---|---|---|---|---|---|---|
| 1777850349 | 16.67° C | 55% | 1009 hPa | 0 mm | - | 11 W/m² | - |
| 1777850046 | 16.67° C | 54% | 1008.9 hPa | 0 mm | - | 12 W/m² | - |
| 1777849742 | 16.67° C | 53% | 1009 hPa | 0 mm | - | 12 W/m² | - |
| 1777849439 | 16.67° C | 53% | 1009.3 hPa | 0 mm | - | 13 W/m² | - |
| 1777849136 | 16.67° C | 53% | 1009.1 hPa | 0 mm | - | 14 W/m² | - |
| 1777848832 | 16.67° C | 52% | 1009.2 hPa | 0 mm | - | 15 W/m² | - |
| 1777848528 | 16.67° C | 52% | 1009.2 hPa | 0 mm | - | 18 W/m² | - |
| 1777848226 | 16.67° C | 52% | 1009.6 hPa | 0 mm | - | 18 W/m² | - |
| 1777847923 | 16.67° C | 52% | 1009.7 hPa | 0 mm | - | 21 W/m² | - |
| 1777847621 | 16.67° C | 53% | 1009.6 hPa | 0 mm | - | 21 W/m² | - |
| 1777847316 | 16.67° C | 52% | 1009.5 hPa | 0 mm | - | 18 W/m² | - |
| 1777847015 | 16.67° C | 51% | 1009.7 hPa | 0 mm | - | 21 W/m² | - |
| 1777846713 | 16.67° C | 51% | 1009.5 hPa | 0 mm | - | 19 W/m² | - |
| 1777846412 | 16.67° C | 51% | 1009.7 hPa | 0 mm | - | 17 W/m² | - |
| 1777846107 | 17.22° C | 51% | 1009.7 hPa | 0 mm | - | 17 W/m² | - |
| 1777845803 | 17.22° C | 52% | 1009.9 hPa | 0 mm | - | 22 W/m² | - |
| 1777845495 | 17.78° C | 49% | 1010 hPa | 0 mm | - | 28 W/m² | - |
| 1777845192 | 17.78° C | 48% | 1010 hPa | 0 mm | - | 47 W/m² | - |
| 1777844890 | 17.22° C | 49% | 1010.2 hPa | 0 mm | - | 34 W/m² | - |
| 1777844587 | 17.22° C | 48% | 1010.3 hPa | 0 mm | - | 35 W/m² | - |
| 1777844284 | 17.22° C | 49% | 1010.2 hPa | 0 mm | - | 38 W/m² | - |
| 1777843982 | 17.22° C | 48% | 1010.1 hPa | 0 mm | - | 40 W/m² | - |
| 1777843678 | 17.22° C | 50% | 1010.2 hPa | 0 mm | - | 43 W/m² | - |
| 1777843376 | 17.22° C | 49% | 1010.2 hPa | 0 mm | - | 43 W/m² | - |
| 1777843074 | 17.22° C | 49% | 1010.6 hPa | 0 mm | - | 41 W/m² | - |
* Rain latest hour (hover to see other rain measurements)
** Current wind speed in m/s (hover to see current wind gust speed)